TimeEDT,TemperatureF,Dew PointF,Humidity,Sea Level PressureIn,VisibilityMPH,Wind Direction,Wind SpeedMPH,Gust SpeedMPH,PrecipitationIn,Events,Conditions,WindDirDegrees,DateUTC
12:53 AM,64.0,61.0,90,30.14,9.0,Calm,Calm,-,N/A,,Overcast,0,2013-09-19 04:53:00
1:16 AM,62.6,60.8,94,30.15,7.0,Calm,Calm,-,N/A,,Overcast,0,2013-09-19 05:16:00
1:53 AM,64.0,61.0,90,30.12,9.0,Calm,Calm,-,N/A,,Overcast,0,2013-09-19 05:53:00
2:53 AM,63.0,61.0,93,30.12,6.0,Calm,Calm,-,0.00,Rain,Light Rain,0,2013-09-19 06:53:00
3:10 AM,62.6,60.8,94,30.14,2.5,Calm,Calm,-,0.05,Rain,Light Rain,0,2013-09-19 07:10:00
3:18 AM,62.6,60.8,94,30.14,7.0,Calm,Calm,-,0.05,Rain,Light Rain,0,2013-09-19 07:18:00
3:53 AM,63.0,61.0,93,30.11,7.0,Calm,Calm,-,0.05,Rain,Light Rain,0,2013-09-19 07:53:00
4:16 AM,62.6,60.8,94,30.14,1.5,Calm,Calm,-,0.00,,Overcast,0,2013-09-19 08:16:00
4:28 AM,62.6,60.8,94,30.14,3.0,Calm,Calm,-,0.00,,Overcast,0,2013-09-19 08:28:00
4:53 AM,63.0,61.0,93,30.11,8.0,Calm,Calm,-,0.00,,Overcast,0,2013-09-19 08:53:00
5:53 AM,63.0,61.0,93,30.11,4.0,Calm,Calm,-,N/A,,Overcast,0,2013-09-19 09:53:00
6:35 AM,62.6,60.8,94,30.14,2.5,Calm,Calm,-,N/A,,Mostly Cloudy,0,2013-09-19 10:35:00
6:39 AM,62.6,60.8,94,30.14,1.5,Calm,Calm,-,N/A,,Mostly Cloudy,0,2013-09-19 10:39:00
6:46 AM,62.6,60.8,94,30.15,1.8,Calm,Calm,-,N/A,,Mostly Cloudy,0,2013-09-19 10:46:00
6:50 AM,62.6,60.8,94,30.15,2.0,Calm,Calm,-,N/A,,Mostly Cloudy,0,2013-09-19 10:50:00
6:53 AM,63.0,61.0,93,30.12,4.0,Calm,Calm,-,N/A,,Mostly Cloudy,0,2013-09-19 10:53:00
7:53 AM,64.0,61.0,90,30.13,5.0,Calm,Calm,-,N/A,,Overcast,0,2013-09-19 11:53:00
8:53 AM,64.9,62.1,90,30.14,6.0,Calm,Calm,-,N/A,,Overcast,0,2013-09-19 12:53:00
9:33 AM,66.2,62.6,88,30.17,7.0,Calm,Calm,-,0.00,Rain,Light Rain,0,2013-09-19 13:33:00
9:53 AM,66.9,63.0,87,30.15,9.0,Calm,Calm,-,0.00,,Mostly Cloudy,0,2013-09-19 13:53:00
10:00 AM,66.2,62.6,88,30.18,9.0,Calm,Calm,-,N/A,,Mostly Cloudy,0,2013-09-19 14:00:00
10:08 AM,66.2,62.6,88,30.18,9.0,Calm,Calm,-,N/A,,Mostly Cloudy,0,2013-09-19 14:08:00
10:53 AM,72.0,64.9,78,30.15,10.0,Variable,3.5,-,N/A,,Mostly Cloudy,0,2013-09-19 14:53:00
11:53 AM,70.0,64.0,81,30.15,10.0,Variable,3.5,-,N/A,,Overcast,0,2013-09-19 15:53:00
12:53 PM,75.0,66.9,76,30.13,10.0,Calm,Calm,-,N/A,,Mostly Cloudy,0,2013-09-19 16:53:00
1:48 PM,75.2,66.2,73,30.15,10.0,Calm,Calm,-,N/A,,Mostly Cloudy,0,2013-09-19 17:48:00
1:53 PM,73.9,66.0,76,30.11,10.0,Calm,Calm,-,N/A,,Mostly Cloudy,0,2013-09-19 17:53:00
2:53 PM,78.1,66.9,68,30.09,10.0,Calm,Calm,-,N/A,,Overcast,0,2013-09-19 18:53:00
3:24 PM,75.2,66.2,73,30.12,10.0,Calm,Calm,-,N/A,,Mostly Cloudy,0,2013-09-19 19:24:00
3:53 PM,75.9,68.0,76,30.08,10.0,Calm,Calm,-,N/A,,Overcast,0,2013-09-19 19:53:00
4:53 PM,77.0,68.0,74,30.07,10.0,Calm,Calm,-,N/A,,Mostly Cloudy,0,2013-09-19 20:53:00
5:53 PM,77.0,68.0,74,30.07,10.0,Calm,Calm,-,N/A,,Scattered Clouds,0,2013-09-19 21:53:00
6:53 PM,73.9,68.0,82,30.06,10.0,Calm,Calm,-,N/A,,Mostly Cloudy,0,2013-09-19 22:53:00
7:53 PM,73.0,68.0,84,30.05,10.0,Calm,Calm,-,N/A,,Clear,0,2013-09-19 23:53:00
8:53 PM,72.0,66.9,84,30.05,9.0,Calm,Calm,-,N/A,,Clear,0,2013-09-20 00:53:00
9:53 PM,70.0,66.9,90,30.04,8.0,Calm,Calm,-,N/A,,Clear,0,2013-09-20 01:53:00
10:53 PM,69.1,66.9,93,30.04,6.0,Calm,Calm,-,N/A,,Clear,0,2013-09-20 02:53:00
11:53 PM,69.1,66.0,90,30.05,7.0,Calm,Calm,-,N/A,,Clear,0,2013-09-20 03:53:00